This is the latest recevied weather packets stored in our database for station/object E7HQ-1. If no packets are shown the sender has not sent any weather packets the latest 10 day(s).
| Time | Temp. | Humidity | Pressure | Rain* | Wind** | Luminosity | Snow |
|---|---|---|---|---|---|---|---|
| 1777443113 | 14.44° C | 46% | 1028.6 hPa | - | - | - | - |
| 1777442212 | 13.89° C | 47% | 1028.5 hPa | - | - | - | - |
| 1777441312 | 13.33° C | 48% | 1028.3 hPa | - | - | - | - |
| 1777440412 | 12.78° C | 48% | 1028.3 hPa | - | - | - | - |
| 1777439512 | 12.78° C | 47% | 1028.3 hPa | - | - | - | - |
| 1777438612 | 12.22° C | 48% | 1028.3 hPa | - | - | - | - |
| 1777437711 | 12.22° C | 48% | 1028.3 hPa | - | - | - | - |
| 1777436811 | 12.22° C | 48% | 1028.1 hPa | - | - | - | - |
| 1777435911 | 12.22° C | 47% | 1028 hPa | - | - | - | - |
| 1777435011 | 12.22° C | 47% | 1027.9 hPa | - | - | - | - |
| 1777434110 | 12.78° C | 47% | 1027.8 hPa | - | - | - | - |
| 1777433210 | 12.78° C | 47% | 1027.8 hPa | - | - | - | - |
| 1777432310 | 12.78° C | 47% | 1027.7 hPa | - | - | - | - |
| 1777431410 | 12.78° C | 46% | 1027.6 hPa | - | - | - | - |
| 1777430510 | 12.78° C | 45% | 1027.5 hPa | - | - | - | - |
| 1777429609 | 12.78° C | 46% | 1027.5 hPa | - | - | - | - |
| 1777428709 | 12.78° C | 45% | 1027.6 hPa | - | - | - | - |
| 1777427809 | 12.78° C | 45% | 1027.5 hPa | - | - | - | - |
| 1777426909 | 12.78° C | 46% | 1027.5 hPa | - | - | - | - |
| 1777426009 | 13.33° C | 45% | 1027.5 hPa | - | - | - | - |
| 1777425108 | 13.33° C | 45% | 1027.5 hPa | - | - | - | - |
| 1777424208 | 13.33° C | 45% | 1027.6 hPa | - | - | - | - |
| 1777423308 | 13.33° C | 45% | 1027.5 hPa | - | - | - | - |
| 1777422407 | 13.33° C | 45% | 1027.6 hPa | - | - | - | - |
| 1777421512 | 13.33° C | 45% | 1027.7 hPa | - | - | - | - |
* Rain since midnight (hover to see other rain measurements)
** Current wind speed in m/s (hover to see current wind gust speed)